Regional Weather Roundup
Issued by NWS

Home | Current Version | Previous Version | Graphics & Text | Print | Product List | Glossary On
Versions: 1 2 3 4 5 6 7 8 9 10 11 12 13 14 15 16 17 18 19 20 21 22 23 24 25 26 27 28 29 30 31 32 33 34 35 36 37 38 39 40 41 42 43 44 45 46 47 48 49 50
000
ASUS43 KLMK 280402
RWRKY
KENTUCKY REGIONAL WEATHER ROUNDUP
NATIONAL WEATHER SERVICE LOUISVILLE KY
1100 PM EST SAT DEC 27 2014

NOTE "FAIR" INDICATES FEW OR NO CLOUDS BELOW 12,000 FEET
WITH NO SIGNIFICANT WEATHER AND/OR OBSTRUCTIONS TO VISIBILITY.

KYZ001>023-026-027-061>063-070>075-280500-
WESTERN AND SOUTH CENTRAL KENTUCKY

CITY           SKY/WX    TMP DP  RH WIND       PRES   REMARKS
PADUCAH        RAIN      41  39  93 N8        30.13S FOG
HENDERSON      CLOUDY    41  37  87 N7        30.13F
OWENSBORO      LGT RAIN  43  42  96 N7        30.14R
HOPKINSVILLE   DRIZZLE   49  48  99 NW5       30.11R
BOWLING GREEN  CLOUDY    49  46  90 SW3       30.11F FOG
GLASGOW        NOT AVBL
$$

KYZ024-025-028>034-038-045-046-053-280500-
NORTH CENTRAL KENTUCKY

CITY           SKY/WX    TMP DP  RH WIND       PRES   REMARKS
LOUISVILLE/SDF LGT RAIN  49  47  93 SW3       30.09F FOG
LOUISVILLE/LOU LGT RAIN  48  47  96 SW5       30.10S FOG
FORT KNOX      CLOUDY    47  46  97 SW3       30.07F FOG
$$

KYZ035>037-039>044-047>052-055>060-089>105-280500-
NORTHEAST KENTUCKY

CITY           SKY/WX    TMP DP  RH WIND       PRES   REMARKS
LEXINGTON      CLOUDY    46  45  96 SW7       30.09S FOG
COVINGTON      LGT RAIN  48  44  86 SW6       30.08R FOG
FRANKFORT      CLOUDY    47  45  93 SW6       30.09R FOG
$$

KYZ054-064>069-076>088-106>120-280500-
SOUTHEAST KENTUCKY

CITY           SKY/WX    TMP DP  RH WIND       PRES   REMARKS
JACKSON        CLOUDY    48  40  73 VRB5      30.08F
LONDON         CLOUDY    48  42  80 CALM      30.10F
SOMERSET       NOT AVBL
MIDDLESBORO    CLOUDY    46  46  99 CALM      30.12F
MONTICELLO     CLOUDY    49  46  89 CALM      30.13R
$$



USA.gov is the U.S. government's official web portal to all federal, state and local government web resources and services.